owner,sensor,date,latitude,longitude,vertical_datum,sea_water_temperature,qcFlag 
ENP,ioos.station.NOAA.NDBC:CANF1:1,2019-07-01T00:00:00Z,25.4220,-80.9420,1.0,28.88,11111222 
ENP,ioos.station.NOAA.NDBC:CANF1:1,2019-07-01T01:00:00Z,25.4220,-80.9420,1.0,28.95,11111222 
ENP,ioos.station.NOAA.NDBC:CANF1:1,2019-07-01T02:00:00Z,25.4220,-80.9420,1.0,28.96,11111222 
ENP,ioos.station.NOAA.NDBC:CANF1:1,2019-07-01T03:00:00Z,25.4220,-80.9420,1.0,28.9,11111222 
ENP,ioos.station.NOAA.NDBC:CANF1:1,2019-07-01T04:00:00Z,25.4220,-80.9420,1.0,28.77,11111222 
ENP,ioos.station.NOAA.NDBC:CANF1:1,2019-07-01T05:00:00Z,25.4220,-80.9420,1.0,28.71,11111222 
ENP,ioos.station.NOAA.NDBC:CANF1:1,2019-07-01T06:00:00Z,25.4220,-80.9420,1.0,28.66,11111222 
ENP,ioos.station.NOAA.NDBC:CANF1:1,2019-07-01T07:00:00Z,25.4220,-80.9420,1.0,28.6,11111222 
ENP,ioos.station.NOAA.NDBC:CANF1:1,2019-07-01T08:00:00Z,25.4220,-80.9420,1.0,28.54,11111222 
ENP,ioos.station.NOAA.NDBC:CANF1:1,2019-07-01T09:00:00Z,25.4220,-80.9420,1.0,28.49,11111222 
ENP,ioos.station.NOAA.NDBC:CANF1:1,2019-07-01T10:00:00Z,25.4220,-80.9420,1.0,28.46,11111222 
ENP,ioos.station.NOAA.NDBC:CANF1:1,2019-07-01T11:00:00Z,25.4220,-80.9420,1.0,28.43,11111222 
ENP,ioos.station.NOAA.NDBC:CANF1:1,2019-07-01T12:00:00Z,25.4220,-80.9420,1.0,28.43,11111222 
ENP,ioos.station.NOAA.NDBC:CANF1:1,2019-07-01T13:00:00Z,25.4220,-80.9420,1.0,28.45,11111222 
ENP,ioos.station.NOAA.NDBC:CANF1:1,2019-07-01T14:00:00Z,25.4220,-80.9420,1.0,28.5,11111222 
ENP,ioos.station.NOAA.NDBC:CANF1:1,2019-07-01T15:00:00Z,25.4220,-80.9420,1.0,28.51,11111222 
ENP,ioos.station.NOAA.NDBC:CANF1:1,2019-07-01T16:00:00Z,25.4220,-80.9420,1.0,28.55,11111222 
ENP,ioos.station.NOAA.NDBC:CANF1:1,2019-07-01T17:00:00Z,25.4220,-80.9420,1.0,28.66,11111222 
ENP,ioos.station.NOAA.NDBC:CANF1:1,2019-07-01T18:00:00Z,25.4220,-80.9420,1.0,28.73,11111222 
ENP,ioos.station.NOAA.NDBC:CANF1:1,2019-07-01T19:00:00Z,25.4220,-80.9420,1.0,28.76,11111222 
ENP,ioos.station.NOAA.NDBC:CANF1:1,2019-07-01T20:00:00Z,25.4220,-80.9420,1.0,28.85,11111222 
ENP,ioos.station.NOAA.NDBC:CANF1:1,2019-07-01T21:00:00Z,25.4220,-80.9420,1.0,28.92,11111222 
ENP,ioos.station.NOAA.NDBC:CANF1:1,2019-07-01T22:00:00Z,25.4220,-80.9420,1.0,29.01,11111222 
ENP,ioos.station.NOAA.NDBC:CANF1:1,2019-07-01T23:00:00Z,25.4220,-80.9420,1.0,29.44,11111222 
ENP,ioos.station.NOAA.NDBC:CANF1:1,2019-07-02T00:00:00Z,25.4220,-80.9420,1.0,29.06,11111222 
ENP,ioos.station.NOAA.NDBC:CANF1:1,2019-07-02T01:00:00Z,25.4220,-80.9420,1.0,29.22,11111222 
ENP,ioos.station.NOAA.NDBC:CANF1:1,2019-07-02T02:00:00Z,25.4220,-80.9420,1.0,29.29,11111222 
ENP,ioos.station.NOAA.NDBC:CANF1:1,2019-07-02T03:00:00Z,25.4220,-80.9420,1.0,29.2,11111222 
ENP,ioos.station.NOAA.NDBC:CANF1:1,2019-07-02T04:00:00Z,25.4220,-80.9420,1.0,29.08,11111222 
ENP,ioos.station.NOAA.NDBC:CANF1:1,2019-07-02T05:00:00Z,25.4220,-80.9420,1.0,29.0,11111222 
ENP,ioos.station.NOAA.NDBC:CANF1:1,2019-07-02T06:00:00Z,25.4220,-80.9420,1.0,28.9,11111222 
ENP,ioos.station.NOAA.NDBC:CANF1:1,2019-07-02T07:00:00Z,25.4220,-80.9420,1.0,28.84,11111222 
ENP,ioos.station.NOAA.NDBC:CANF1:1,2019-07-02T08:00:00Z,25.4220,-80.9420,1.0,28.8,11111222 
ENP,ioos.station.NOAA.NDBC:CANF1:1,2019-07-02T09:00:00Z,25.4220,-80.9420,1.0,28.74,11111222 
ENP,ioos.station.NOAA.NDBC:CANF1:1,2019-07-02T10:00:00Z,25.4220,-80.9420,1.0,28.7,11111222 
ENP,ioos.station.NOAA.NDBC:CANF1:1,2019-07-02T11:00:00Z,25.4220,-80.9420,1.0,28.64,11111222 
ENP,ioos.station.NOAA.NDBC:CANF1:1,2019-07-02T12:00:00Z,25.4220,-80.9420,1.0,28.62,11111222 
ENP,ioos.station.NOAA.NDBC:CANF1:1,2019-07-02T13:00:00Z,25.4220,-80.9420,1.0,28.63,11111222 
ENP,ioos.station.NOAA.NDBC:CANF1:1,2019-07-02T14:00:00Z,25.4220,-80.9420,1.0,28.65,11111222 
ENP,ioos.station.NOAA.NDBC:CANF1:1,2019-07-02T15:00:00Z,25.4220,-80.9420,1.0,28.73,11111222 
ENP,ioos.station.NOAA.NDBC:CANF1:1,2019-07-02T16:00:00Z,25.4220,-80.9420,1.0,28.88,11111222 
ENP,ioos.station.NOAA.NDBC:CANF1:1,2019-07-02T17:00:00Z,25.4220,-80.9420,1.0,29.06,11111222 
ENP,ioos.station.NOAA.NDBC:CANF1:1,2019-07-02T18:00:00Z,25.4220,-80.9420,1.0,29.19,11111222 
ENP,ioos.station.NOAA.NDBC:CANF1:1,2019-07-02T19:00:00Z,25.4220,-80.9420,1.0,29.27,11111222 
ENP,ioos.station.NOAA.NDBC:CANF1:1,2019-07-02T20:00:00Z,25.4220,-80.9420,1.0,29.32,11111222 
ENP,ioos.station.NOAA.NDBC:CANF1:1,2019-07-02T21:00:00Z,25.4220,-80.9420,1.0,29.41,11111222 
ENP,ioos.station.NOAA.NDBC:CANF1:1,2019-07-02T22:00:00Z,25.4220,-80.9420,1.0,29.53,11111222 
ENP,ioos.station.NOAA.NDBC:CANF1:1,2019-07-02T23:00:00Z,25.4220,-80.9420,1.0,29.56,11111222 
ENP,ioos.station.NOAA.NDBC:CANF1:1,2019-07-03T00:00:00Z,25.4220,-80.9420,1.0,29.75,11111222 
ENP,ioos.station.NOAA.NDBC:CANF1:1,2019-07-03T01:00:00Z,25.4220,-80.9420,1.0,29.81,11111222 
ENP,ioos.station.NOAA.NDBC:CANF1:1,2019-07-03T02:00:00Z,25.4220,-80.9420,1.0,29.79,11111222 
ENP,ioos.station.NOAA.NDBC:CANF1:1,2019-07-03T03:00:00Z,25.4220,-80.9420,1.0,30.0,11111222 
ENP,ioos.station.NOAA.NDBC:CANF1:1,2019-07-03T04:00:00Z,25.4220,-80.9420,1.0,30.11,11111222 
ENP,ioos.station.NOAA.NDBC:CANF1:1,2019-07-03T05:00:00Z,25.4220,-80.9420,1.0,30.26,11111222 
ENP,ioos.station.NOAA.NDBC:CANF1:1,2019-07-03T06:00:00Z,25.4220,-80.9420,1.0,30.28,11111222 
ENP,ioos.station.NOAA.NDBC:CANF1:1,2019-07-03T07:00:00Z,25.4220,-80.9420,1.0,30.22,11111222 
ENP,ioos.station.NOAA.NDBC:CANF1:1,2019-07-03T08:00:00Z,25.4220,-80.9420,1.0,30.16,11111222 
ENP,ioos.station.NOAA.NDBC:CANF1:1,2019-07-03T09:00:00Z,25.4220,-80.9420,1.0,30.09,11111222 
ENP,ioos.station.NOAA.NDBC:CANF1:1,2019-07-03T10:00:00Z,25.4220,-80.9420,1.0,30.03,11111222 
ENP,ioos.station.NOAA.NDBC:CANF1:1,2019-07-03T11:00:00Z,25.4220,-80.9420,1.0,29.95,11111222 
ENP,ioos.station.NOAA.NDBC:CANF1:1,2019-07-03T12:00:00Z,25.4220,-80.9420,1.0,29.91,11111222 
ENP,ioos.station.NOAA.NDBC:CANF1:1,2019-07-03T13:00:00Z,25.4220,-80.9420,1.0,29.96,11111222 
ENP,ioos.station.NOAA.NDBC:CANF1:1,2019-07-03T14:00:00Z,25.4220,-80.9420,1.0,30.1,11111222 
ENP,ioos.station.NOAA.NDBC:CANF1:1,2019-07-03T15:00:00Z,25.4220,-80.9420,1.0,30.28,11111222 
ENP,ioos.station.NOAA.NDBC:CANF1:1,2019-07-03T16:00:00Z,25.4220,-80.9420,1.0,30.46,11111222 
ENP,ioos.station.NOAA.NDBC:CANF1:1,2019-07-03T17:00:00Z,25.4220,-80.9420,1.0,30.53,11111222 
ENP,ioos.station.NOAA.NDBC:CANF1:1,2019-07-03T18:00:00Z,25.4220,-80.9420,1.0,30.58,11111222 
ENP,ioos.station.NOAA.NDBC:CANF1:1,2019-07-03T19:00:00Z,25.4220,-80.9420,1.0,30.57,11111222 
ENP,ioos.station.NOAA.NDBC:CANF1:1,2019-07-03T20:00:00Z,25.4220,-80.9420,1.0,30.55,11111222 
ENP,ioos.station.NOAA.NDBC:CANF1:1,2019-07-03T21:00:00Z,25.4220,-80.9420,1.0,30.5,11111222 
ENP,ioos.station.NOAA.NDBC:CANF1:1,2019-07-03T22:00:00Z,25.4220,-80.9420,1.0,30.44,11111222 
ENP,ioos.station.NOAA.NDBC:CANF1:1,2019-07-03T23:00:00Z,25.4220,-80.9420,1.0,30.42,11111222 
ENP,ioos.station.NOAA.NDBC:CANF1:1,2019-07-04T00:00:00Z,25.4220,-80.9420,1.0,30.42,11111222 
ENP,ioos.station.NOAA.NDBC:CANF1:1,2019-07-04T01:00:00Z,25.4220,-80.9420,1.0,30.41,11111222 
ENP,ioos.station.NOAA.NDBC:CANF1:1,2019-07-04T02:00:00Z,25.4220,-80.9420,1.0,30.39,11111222 
ENP,ioos.station.NOAA.NDBC:CANF1:1,2019-07-04T03:00:00Z,25.4220,-80.9420,1.0,30.3,11111222 
ENP,ioos.station.NOAA.NDBC:CANF1:1,2019-07-04T04:00:00Z,25.4220,-80.9420,1.0,30.3,11111222 
ENP,ioos.station.NOAA.NDBC:CANF1:1,2019-07-04T05:00:00Z,25.4220,-80.9420,1.0,30.38,11111222 
ENP,ioos.station.NOAA.NDBC:CANF1:1,2019-07-04T06:00:00Z,25.4220,-80.9420,1.0,30.43,11111222 
ENP,ioos.station.NOAA.NDBC:CANF1:1,2019-07-04T07:00:00Z,25.4220,-80.9420,1.0,30.39,11111222 
ENP,ioos.station.NOAA.NDBC:CANF1:1,2019-07-04T08:00:00Z,25.4220,-80.9420,1.0,30.32,11111222 
ENP,ioos.station.NOAA.NDBC:CANF1:1,2019-07-04T09:00:00Z,25.4220,-80.9420,1.0,30.25,11111222 
ENP,ioos.station.NOAA.NDBC:CANF1:1,2019-07-04T10:00:00Z,25.4220,-80.9420,1.0,30.18,11111222 
ENP,ioos.station.NOAA.NDBC:CANF1:1,2019-07-04T11:00:00Z,25.4220,-80.9420,1.0,30.11,11111222 
ENP,ioos.station.NOAA.NDBC:CANF1:1,2019-07-04T12:00:00Z,25.4220,-80.9420,1.0,30.07,11111222 
ENP,ioos.station.NOAA.NDBC:CANF1:1,2019-07-04T13:00:00Z,25.4220,-80.9420,1.0,30.08,11111222 
ENP,ioos.station.NOAA.NDBC:CANF1:1,2019-07-04T14:00:00Z,25.4220,-80.9420,1.0,30.15,11111222 
ENP,ioos.station.NOAA.NDBC:CANF1:1,2019-07-04T15:00:00Z,25.4220,-80.9420,1.0,30.33,11111222 
ENP,ioos.station.NOAA.NDBC:CANF1:1,2019-07-04T16:00:00Z,25.4220,-80.9420,1.0,30.49,11111222 
ENP,ioos.station.NOAA.NDBC:CANF1:1,2019-07-04T17:00:00Z,25.4220,-80.9420,1.0,30.62,11111222 
ENP,ioos.station.NOAA.NDBC:CANF1:1,2019-07-04T18:00:00Z,25.4220,-80.9420,1.0,30.76,11111222 
ENP,ioos.station.NOAA.NDBC:CANF1:1,2019-07-04T19:00:00Z,25.4220,-80.9420,1.0,30.86,11111222 
ENP,ioos.station.NOAA.NDBC:CANF1:1,2019-07-04T20:00:00Z,25.4220,-80.9420,1.0,30.97,11111222 
ENP,ioos.station.NOAA.NDBC:CANF1:1,2019-07-04T21:00:00Z,25.4220,-80.9420,1.0,31.0,11111222 
ENP,ioos.station.NOAA.NDBC:CANF1:1,2019-07-04T22:00:00Z,25.4220,-80.9420,1.0,31.02,11111222 
ENP,ioos.station.NOAA.NDBC:CANF1:1,2019-07-04T23:00:00Z,25.4220,-80.9420,1.0,31.09,11111222 
ENP,ioos.station.NOAA.NDBC:CANF1:1,2019-07-05T00:00:00Z,25.4220,-80.9420,1.0,31.19,11111222 
ENP,ioos.station.NOAA.NDBC:CANF1:1,2019-07-05T01:00:00Z,25.4220,-80.9420,1.0,31.15,11111222 
ENP,ioos.station.NOAA.NDBC:CANF1:1,2019-07-05T02:00:00Z,25.4220,-80.9420,1.0,31.16,11111222 
ENP,ioos.station.NOAA.NDBC:CANF1:1,2019-07-05T03:00:00Z,25.4220,-80.9420,1.0,31.0,11111222 
ENP,ioos.station.NOAA.NDBC:CANF1:1,2019-07-05T04:00:00Z,25.4220,-80.9420,1.0,30.87,11111222 
ENP,ioos.station.NOAA.NDBC:CANF1:1,2019-07-05T05:00:00Z,25.4220,-80.9420,1.0,30.77,11111222 
ENP,ioos.station.NOAA.NDBC:CANF1:1,2019-07-05T06:00:00Z,25.4220,-80.9420,1.0,30.72,11111222 
ENP,ioos.station.NOAA.NDBC:CANF1:1,2019-07-05T07:00:00Z,25.4220,-80.9420,1.0,30.68,11111222 
ENP,ioos.station.NOAA.NDBC:CANF1:1,2019-07-05T08:00:00Z,25.4220,-80.9420,1.0,30.56,11111222 
ENP,ioos.station.NOAA.NDBC:CANF1:1,2019-07-05T09:00:00Z,25.4220,-80.9420,1.0,30.44,11111222 
ENP,ioos.station.NOAA.NDBC:CANF1:1,2019-07-05T10:00:00Z,25.4220,-80.9420,1.0,30.35,11111222 
ENP,ioos.station.NOAA.NDBC:CANF1:1,2019-07-05T11:00:00Z,25.4220,-80.9420,1.0,30.28,11111222 
ENP,ioos.station.NOAA.NDBC:CANF1:1,2019-07-05T12:00:00Z,25.4220,-80.9420,1.0,30.24,11111222 
ENP,ioos.station.NOAA.NDBC:CANF1:1,2019-07-05T13:00:00Z,25.4220,-80.9420,1.0,30.23,11111222 
ENP,ioos.station.NOAA.NDBC:CANF1:1,2019-07-05T14:00:00Z,25.4220,-80.9420,1.0,30.24,11111222 
ENP,ioos.station.NOAA.NDBC:CANF1:1,2019-07-05T15:00:00Z,25.4220,-80.9420,1.0,30.22,11111222 
ENP,ioos.station.NOAA.NDBC:CANF1:1,2019-07-05T16:00:00Z,25.4220,-80.9420,1.0,30.19,11111222 
ENP,ioos.station.NOAA.NDBC:CANF1:1,2019-07-05T17:00:00Z,25.4220,-80.9420,1.0,30.16,11111222 
ENP,ioos.station.NOAA.NDBC:CANF1:1,2019-07-05T18:00:00Z,25.4220,-80.9420,1.0,30.18,11111222 
ENP,ioos.station.NOAA.NDBC:CANF1:1,2019-07-05T19:00:00Z,25.4220,-80.9420,1.0,30.27,11111222 
ENP,ioos.station.NOAA.NDBC:CANF1:1,2019-07-05T20:00:00Z,25.4220,-80.9420,1.0,30.29,11111222 
ENP,ioos.station.NOAA.NDBC:CANF1:1,2019-07-05T21:00:00Z,25.4220,-80.9420,1.0,30.27,11111222 
ENP,ioos.station.NOAA.NDBC:CANF1:1,2019-07-05T22:00:00Z,25.4220,-80.9420,1.0,30.23,11111222 
ENP,ioos.station.NOAA.NDBC:CANF1:1,2019-07-05T23:00:00Z,25.4220,-80.9420,1.0,30.23,11111222 
ENP,ioos.station.NOAA.NDBC:CANF1:1,2019-07-06T00:00:00Z,25.4220,-80.9420,1.0,30.25,11111222 
ENP,ioos.station.NOAA.NDBC:CANF1:1,2019-07-06T01:00:00Z,25.4220,-80.9420,1.0,30.3,11111222 
ENP,ioos.station.NOAA.NDBC:CANF1:1,2019-07-06T02:00:00Z,25.4220,-80.9420,1.0,30.25,11111222 
ENP,ioos.station.NOAA.NDBC:CANF1:1,2019-07-06T03:00:00Z,25.4220,-80.9420,1.0,30.2,11111222 
ENP,ioos.station.NOAA.NDBC:CANF1:1,2019-07-06T04:00:00Z,25.4220,-80.9420,1.0,30.17,11111222 
ENP,ioos.station.NOAA.NDBC:CANF1:1,2019-07-06T05:00:00Z,25.4220,-80.9420,1.0,30.01,11111222 
ENP,ioos.station.NOAA.NDBC:CANF1:1,2019-07-06T06:00:00Z,25.4220,-80.9420,1.0,29.94,11111222 
ENP,ioos.station.NOAA.NDBC:CANF1:1,2019-07-06T07:00:00Z,25.4220,-80.9420,1.0,29.89,11111222 
ENP,ioos.station.NOAA.NDBC:CANF1:1,2019-07-06T08:00:00Z,25.4220,-80.9420,1.0,29.86,11111222 
ENP,ioos.station.NOAA.NDBC:CANF1:1,2019-07-06T09:00:00Z,25.4220,-80.9420,1.0,29.79,11111222 
ENP,ioos.station.NOAA.NDBC:CANF1:1,2019-07-06T10:00:00Z,25.4220,-80.9420,1.0,29.7,11111222 
ENP,ioos.station.NOAA.NDBC:CANF1:1,2019-07-06T11:00:00Z,25.4220,-80.9420,1.0,29.63,11111222 
ENP,ioos.station.NOAA.NDBC:CANF1:1,2019-07-06T12:00:00Z,25.4220,-80.9420,1.0,29.58,11111222 
ENP,ioos.station.NOAA.NDBC:CANF1:1,2019-07-06T13:00:00Z,25.4220,-80.9420,1.0,29.54,11111222 
ENP,ioos.station.NOAA.NDBC:CANF1:1,2019-07-06T14:00:00Z,25.4220,-80.9420,1.0,29.61,11111222 
ENP,ioos.station.NOAA.NDBC:CANF1:1,2019-07-06T15:00:00Z,25.4220,-80.9420,1.0,29.71,11111222 
ENP,ioos.station.NOAA.NDBC:CANF1:1,2019-07-06T16:00:00Z,25.4220,-80.9420,1.0,29.83,11111222 
ENP,ioos.station.NOAA.NDBC:CANF1:1,2019-07-06T17:00:00Z,25.4220,-80.9420,1.0,29.96,11111222 
ENP,ioos.station.NOAA.NDBC:CANF1:1,2019-07-06T18:00:00Z,25.4220,-80.9420,1.0,29.99,11111222 
ENP,ioos.station.NOAA.NDBC:CANF1:1,2019-07-06T19:00:00Z,25.4220,-80.9420,1.0,29.88,11111222 
ENP,ioos.station.NOAA.NDBC:CANF1:1,2019-07-06T20:00:00Z,25.4220,-80.9420,1.0,29.76,11111222 
ENP,ioos.station.NOAA.NDBC:CANF1:1,2019-07-06T21:00:00Z,25.4220,-80.9420,1.0,29.65,11111222 
ENP,ioos.station.NOAA.NDBC:CANF1:1,2019-07-06T22:00:00Z,25.4220,-80.9420,1.0,29.59,11111222 
ENP,ioos.station.NOAA.NDBC:CANF1:1,2019-07-06T23:00:00Z,25.4220,-80.9420,1.0,29.5,11111222 
ENP,ioos.station.NOAA.NDBC:CANF1:1,2019-07-07T00:00:00Z,25.4220,-80.9420,1.0,29.5,11111222 
ENP,ioos.station.NOAA.NDBC:CANF1:1,2019-07-07T01:00:00Z,25.4220,-80.9420,1.0,29.43,11111222 
ENP,ioos.station.NOAA.NDBC:CANF1:1,2019-07-07T02:00:00Z,25.4220,-80.9420,1.0,29.39,11111222 
ENP,ioos.station.NOAA.NDBC:CANF1:1,2019-07-07T03:00:00Z,25.4220,-80.9420,1.0,29.3,11111222 
ENP,ioos.station.NOAA.NDBC:CANF1:1,2019-07-07T04:00:00Z,25.4220,-80.9420,1.0,29.28,11111222 
ENP,ioos.station.NOAA.NDBC:CANF1:1,2019-07-07T05:00:00Z,25.4220,-80.9420,1.0,29.19,11111222 
ENP,ioos.station.NOAA.NDBC:CANF1:1,2019-07-07T06:00:00Z,25.4220,-80.9420,1.0,29.08,11111222 
ENP,ioos.station.NOAA.NDBC:CANF1:1,2019-07-07T07:00:00Z,25.4220,-80.9420,1.0,28.95,11111222 
ENP,ioos.station.NOAA.NDBC:CANF1:1,2019-07-07T08:00:00Z,25.4220,-80.9420,1.0,28.76,11111222 
ENP,ioos.station.NOAA.NDBC:CANF1:1,2019-07-07T09:00:00Z,25.4220,-80.9420,1.0,28.58,11111222 
ENP,ioos.station.NOAA.NDBC:CANF1:1,2019-07-07T10:00:00Z,25.4220,-80.9420,1.0,28.46,11111222 
ENP,ioos.station.NOAA.NDBC:CANF1:1,2019-07-07T11:00:00Z,25.4220,-80.9420,1.0,28.37,11111222 
ENP,ioos.station.NOAA.NDBC:CANF1:1,2019-07-07T12:00:00Z,25.4220,-80.9420,1.0,28.31,11111222 
ENP,ioos.station.NOAA.NDBC:CANF1:1,2019-07-07T13:00:00Z,25.4220,-80.9420,1.0,28.31,11111222 
ENP,ioos.station.NOAA.NDBC:CANF1:1,2019-07-07T14:00:00Z,25.4220,-80.9420,1.0,28.33,11111222 
ENP,ioos.station.NOAA.NDBC:CANF1:1,2019-07-07T15:00:00Z,25.4220,-80.9420,1.0,28.39,11111222 
ENP,ioos.station.NOAA.NDBC:CANF1:1,2019-07-07T16:00:00Z,25.4220,-80.9420,1.0,28.56,11111222 
ENP,ioos.station.NOAA.NDBC:CANF1:1,2019-07-07T17:00:00Z,25.4220,-80.9420,1.0,28.78,11111222 
ENP,ioos.station.NOAA.NDBC:CANF1:1,2019-07-07T18:00:00Z,25.4220,-80.9420,1.0,28.79,11111222 
ENP,ioos.station.NOAA.NDBC:CANF1:1,2019-07-07T19:00:00Z,25.4220,-80.9420,1.0,28.81,11111222 
ENP,ioos.station.NOAA.NDBC:CANF1:1,2019-07-07T20:00:00Z,25.4220,-80.9420,1.0,28.85,11111222 
ENP,ioos.station.NOAA.NDBC:CANF1:1,2019-07-07T21:00:00Z,25.4220,-80.9420,1.0,28.86,11111222 
ENP,ioos.station.NOAA.NDBC:CANF1:1,2019-07-07T22:00:00Z,25.4220,-80.9420,1.0,28.86,11111222 
ENP,ioos.station.NOAA.NDBC:CANF1:1,2019-07-07T23:00:00Z,25.4220,-80.9420,1.0,28.9,11111222 
ENP,ioos.station.NOAA.NDBC:CANF1:1,2019-07-08T00:00:00Z,25.4220,-80.9420,1.0,28.84,11111222 
ENP,ioos.station.NOAA.NDBC:CANF1:1,2019-07-08T01:00:00Z,25.4220,-80.9420,1.0,28.84,11111222 
ENP,ioos.station.NOAA.NDBC:CANF1:1,2019-07-08T02:00:00Z,25.4220,-80.9420,1.0,28.8,11111222 
ENP,ioos.station.NOAA.NDBC:CANF1:1,2019-07-08T03:00:00Z,25.4220,-80.9420,1.0,28.7,11111222 
ENP,ioos.station.NOAA.NDBC:CANF1:1,2019-07-08T04:00:00Z,25.4220,-80.9420,1.0,28.68,11111222 
ENP,ioos.station.NOAA.NDBC:CANF1:1,2019-07-08T05:00:00Z,25.4220,-80.9420,1.0,28.59,11111222 
ENP,ioos.station.NOAA.NDBC:CANF1:1,2019-07-08T06:00:00Z,25.4220,-80.9420,1.0,28.49,11111222 
ENP,ioos.station.NOAA.NDBC:CANF1:1,2019-07-08T07:00:00Z,25.4220,-80.9420,1.0,28.35,11111222 
ENP,ioos.station.NOAA.NDBC:CANF1:1,2019-07-08T08:00:00Z,25.4220,-80.9420,1.0,28.15,11111222 
ENP,ioos.station.NOAA.NDBC:CANF1:1,2019-07-08T09:00:00Z,25.4220,-80.9420,1.0,28.01,11111222 
ENP,ioos.station.NOAA.NDBC:CANF1:1,2019-07-08T10:00:00Z,25.4220,-80.9420,1.0,27.91,11111222 
ENP,ioos.station.NOAA.NDBC:CANF1:1,2019-07-08T11:00:00Z,25.4220,-80.9420,1.0,27.84,11111222 
ENP,ioos.station.NOAA.NDBC:CANF1:1,2019-07-08T12:00:00Z,25.4220,-80.9420,1.0,27.79,11111222 
ENP,ioos.station.NOAA.NDBC:CANF1:1,2019-07-08T13:00:00Z,25.4220,-80.9420,1.0,27.79,11111222 
ENP,ioos.station.NOAA.NDBC:CANF1:1,2019-07-08T14:00:00Z,25.4220,-80.9420,1.0,27.8,11111222 
ENP,ioos.station.NOAA.NDBC:CANF1:1,2019-07-08T15:00:00Z,25.4220,-80.9420,1.0,27.82,11111222 
ENP,ioos.station.NOAA.NDBC:CANF1:1,2019-07-08T16:00:00Z,25.4220,-80.9420,1.0,27.87,11111222 
ENP,ioos.station.NOAA.NDBC:CANF1:1,2019-07-08T17:00:00Z,25.4220,-80.9420,1.0,27.93,11111222 
ENP,ioos.station.NOAA.NDBC:CANF1:1,2019-07-08T18:00:00Z,25.4220,-80.9420,1.0,28.02,11111222 
ENP,ioos.station.NOAA.NDBC:CANF1:1,2019-07-08T19:00:00Z,25.4220,-80.9420,1.0,28.03,11111222 
ENP,ioos.station.NOAA.NDBC:CANF1:1,2019-07-08T20:00:00Z,25.4220,-80.9420,1.0,28.06,11111222 
ENP,ioos.station.NOAA.NDBC:CANF1:1,2019-07-08T21:00:00Z,25.4220,-80.9420,1.0,28.07,11111222 
ENP,ioos.station.NOAA.NDBC:CANF1:1,2019-07-08T22:00:00Z,25.4220,-80.9420,1.0,28.07,11111222 
ENP,ioos.station.NOAA.NDBC:CANF1:1,2019-07-08T23:00:00Z,25.4220,-80.9420,1.0,28.05,11111222 
ENP,ioos.station.NOAA.NDBC:CANF1:1,2019-07-09T00:00:00Z,25.4220,-80.9420,1.0,28.03,11111222 
ENP,ioos.station.NOAA.NDBC:CANF1:1,2019-07-09T01:00:00Z,25.4220,-80.9420,1.0,27.99,11111222 
ENP,ioos.station.NOAA.NDBC:CANF1:1,2019-07-09T02:00:00Z,25.4220,-80.9420,1.0,27.95,11111222 
ENP,ioos.station.NOAA.NDBC:CANF1:1,2019-07-09T03:00:00Z,25.4220,-80.9420,1.0,27.9,11111222 
ENP,ioos.station.NOAA.NDBC:CANF1:1,2019-07-09T04:00:00Z,25.4220,-80.9420,1.0,27.92,11111222 
ENP,ioos.station.NOAA.NDBC:CANF1:1,2019-07-09T05:00:00Z,25.4220,-80.9420,1.0,27.92,11111222 
ENP,ioos.station.NOAA.NDBC:CANF1:1,2019-07-09T06:00:00Z,25.4220,-80.9420,1.0,27.93,11111222 
ENP,ioos.station.NOAA.NDBC:CANF1:1,2019-07-09T07:00:00Z,25.4220,-80.9420,1.0,27.94,11111222 
ENP,ioos.station.NOAA.NDBC:CANF1:1,2019-07-09T08:00:00Z,25.4220,-80.9420,1.0,27.91,11111222 
ENP,ioos.station.NOAA.NDBC:CANF1:1,2019-07-09T09:00:00Z,25.4220,-80.9420,1.0,27.87,11111222 
ENP,ioos.station.NOAA.NDBC:CANF1:1,2019-07-09T10:00:00Z,25.4220,-80.9420,1.0,27.8,11111222 
ENP,ioos.station.NOAA.NDBC:CANF1:1,2019-07-09T11:00:00Z,25.4220,-80.9420,1.0,27.7,11111222 
ENP,ioos.station.NOAA.NDBC:CANF1:1,2019-07-09T12:00:00Z,25.4220,-80.9420,1.0,27.63,11111222 
ENP,ioos.station.NOAA.NDBC:CANF1:1,2019-07-09T13:00:00Z,25.4220,-80.9420,1.0,27.61,11111222 
ENP,ioos.station.NOAA.NDBC:CANF1:1,2019-07-09T14:00:00Z,25.4220,-80.9420,1.0,27.59,11111222 
ENP,ioos.station.NOAA.NDBC:CANF1:1,2019-07-09T15:00:00Z,25.4220,-80.9420,1.0,27.58,11111222 
ENP,ioos.station.NOAA.NDBC:CANF1:1,2019-07-09T16:00:00Z,25.4220,-80.9420,1.0,27.57,11111222 
ENP,ioos.station.NOAA.NDBC:CANF1:1,2019-07-09T17:00:00Z,25.4220,-80.9420,1.0,27.71,11111222 
ENP,ioos.station.NOAA.NDBC:CANF1:1,2019-07-09T18:00:00Z,25.4220,-80.9420,1.0,27.89,11111222 
ENP,ioos.station.NOAA.NDBC:CANF1:1,2019-07-09T19:00:00Z,25.4220,-80.9420,1.0,28.0,11111222 
ENP,ioos.station.NOAA.NDBC:CANF1:1,2019-07-09T20:00:00Z,25.4220,-80.9420,1.0,28.17,11111222 
ENP,ioos.station.NOAA.NDBC:CANF1:1,2019-07-09T21:00:00Z,25.4220,-80.9420,1.0,28.48,11111222 
ENP,ioos.station.NOAA.NDBC:CANF1:1,2019-07-09T22:00:00Z,25.4220,-80.9420,1.0,28.54,11111222 
ENP,ioos.station.NOAA.NDBC:CANF1:1,2019-07-09T23:00:00Z,25.4220,-80.9420,1.0,28.55,11111222 
ENP,ioos.station.NOAA.NDBC:CANF1:1,2019-07-10T00:00:00Z,25.4220,-80.9420,1.0,28.52,11111222 
ENP,ioos.station.NOAA.NDBC:CANF1:1,2019-07-10T01:00:00Z,25.4220,-80.9420,1.0,28.46,11111222 
ENP,ioos.station.NOAA.NDBC:CANF1:1,2019-07-10T02:00:00Z,25.4220,-80.9420,1.0,28.43,11111222 
ENP,ioos.station.NOAA.NDBC:CANF1:1,2019-07-10T03:00:00Z,25.4220,-80.9420,1.0,28.4,11111222 
ENP,ioos.station.NOAA.NDBC:CANF1:1,2019-07-10T04:00:00Z,25.4220,-80.9420,1.0,28.35,11111222 
ENP,ioos.station.NOAA.NDBC:CANF1:1,2019-07-10T05:00:00Z,25.4220,-80.9420,1.0,28.32,11111222 
ENP,ioos.station.NOAA.NDBC:CANF1:1,2019-07-10T06:00:00Z,25.4220,-80.9420,1.0,28.31,11111222 
ENP,ioos.station.NOAA.NDBC:CANF1:1,2019-07-10T07:00:00Z,25.4220,-80.9420,1.0,28.27,11111222 
ENP,ioos.station.NOAA.NDBC:CANF1:1,2019-07-10T08:00:00Z,25.4220,-80.9420,1.0,28.23,11111222 
ENP,ioos.station.NOAA.NDBC:CANF1:1,2019-07-10T09:00:00Z,25.4220,-80.9420,1.0,28.18,11111222 
ENP,ioos.station.NOAA.NDBC:CANF1:1,2019-07-10T10:00:00Z,25.4220,-80.9420,1.0,28.11,11111222 
ENP,ioos.station.NOAA.NDBC:CANF1:1,2019-07-10T11:00:00Z,25.4220,-80.9420,1.0,28.03,11111222 
ENP,ioos.station.NOAA.NDBC:CANF1:1,2019-07-10T12:00:00Z,25.4220,-80.9420,1.0,27.98,11111222 
ENP,ioos.station.NOAA.NDBC:CANF1:1,2019-07-10T13:00:00Z,25.4220,-80.9420,1.0,27.96,11111222 
ENP,ioos.station.NOAA.NDBC:CANF1:1,2019-07-10T14:00:00Z,25.4220,-80.9420,1.0,27.99,11111222 
ENP,ioos.station.NOAA.NDBC:CANF1:1,2019-07-10T15:00:00Z,25.4220,-80.9420,1.0,28.02,11111222 
ENP,ioos.station.NOAA.NDBC:CANF1:1,2019-07-10T16:00:00Z,25.4220,-80.9420,1.0,28.05,11111222 
ENP,ioos.station.NOAA.NDBC:CANF1:1,2019-07-10T17:00:00Z,25.4220,-80.9420,1.0,28.13,11111222 
ENP,ioos.station.NOAA.NDBC:CANF1:1,2019-07-10T18:00:00Z,25.4220,-80.9420,1.0,28.3,11111222 
ENP,ioos.station.NOAA.NDBC:CANF1:1,2019-07-10T19:00:00Z,25.4220,-80.9420,1.0,28.49,11111222 
ENP,ioos.station.NOAA.NDBC:CANF1:1,2019-07-10T20:00:00Z,25.4220,-80.9420,1.0,28.81,11111222 
ENP,ioos.station.NOAA.NDBC:CANF1:1,2019-07-10T21:00:00Z,25.4220,-80.9420,1.0,29.06,11111222 
ENP,ioos.station.NOAA.NDBC:CANF1:1,2019-07-10T22:00:00Z,25.4220,-80.9420,1.0,29.14,11111222 
ENP,ioos.station.NOAA.NDBC:CANF1:1,2019-07-10T23:00:00Z,25.4220,-80.9420,1.0,29.1,11111222 
ENP,ioos.station.NOAA.NDBC:CANF1:1,2019-07-11T00:00:00Z,25.4220,-80.9420,1.0,29.1,11111222 
ENP,ioos.station.NOAA.NDBC:CANF1:1,2019-07-11T01:00:00Z,25.4220,-80.9420,1.0,29.12,11111222 
ENP,ioos.station.NOAA.NDBC:CANF1:1,2019-07-11T02:00:00Z,25.4220,-80.9420,1.0,29.07,11111222 
ENP,ioos.station.NOAA.NDBC:CANF1:1,2019-07-11T03:00:00Z,25.4220,-80.9420,1.0,29.0,11111222 
ENP,ioos.station.NOAA.NDBC:CANF1:1,2019-07-11T04:00:00Z,25.4220,-80.9420,1.0,28.94,11111222 
ENP,ioos.station.NOAA.NDBC:CANF1:1,2019-07-11T05:00:00Z,25.4220,-80.9420,1.0,28.88,11111222 
ENP,ioos.station.NOAA.NDBC:CANF1:1,2019-07-11T06:00:00Z,25.4220,-80.9420,1.0,28.83,11111222 
ENP,ioos.station.NOAA.NDBC:CANF1:1,2019-07-11T07:00:00Z,25.4220,-80.9420,1.0,28.77,11111222 
ENP,ioos.station.NOAA.NDBC:CANF1:1,2019-07-11T08:00:00Z,25.4220,-80.9420,1.0,28.73,11111222 
ENP,ioos.station.NOAA.NDBC:CANF1:1,2019-07-11T09:00:00Z,25.4220,-80.9420,1.0,28.67,11111222 
ENP,ioos.station.NOAA.NDBC:CANF1:1,2019-07-11T10:00:00Z,25.4220,-80.9420,1.0,28.58,11111222 
ENP,ioos.station.NOAA.NDBC:CANF1:1,2019-07-11T11:00:00Z,25.4220,-80.9420,1.0,28.49,11111222 
ENP,ioos.station.NOAA.NDBC:CANF1:1,2019-07-11T12:00:00Z,25.4220,-80.9420,1.0,28.4,11111222 
ENP,ioos.station.NOAA.NDBC:CANF1:1,2019-07-11T13:00:00Z,25.4220,-80.9420,1.0,28.36,11111222 
ENP,ioos.station.NOAA.NDBC:CANF1:1,2019-07-11T14:00:00Z,25.4220,-80.9420,1.0,28.36,11111222 
ENP,ioos.station.NOAA.NDBC:CANF1:1,2019-07-11T15:00:00Z,25.4220,-80.9420,1.0,28.38,11111222 
ENP,ioos.station.NOAA.NDBC:CANF1:1,2019-07-11T16:00:00Z,25.4220,-80.9420,1.0,28.39,11111222 